CTV16G WIMM-WIII

Flight info

Callsign CTV16G
Flight time 1h 57m
Altitude 35000
Route OMBES T5 BUNIK
Aircraft A320/M-SDE3FGHIRWY/LB1

Departure

Time 2026-04-24 12:15
Airport Kualanamu International Airport (WIMM)

Arrival

Time 2026-04-24 14:12
Airport Soekarno-Hatta International Airport (WIII)
Time Latitude Longitude Altitude Speed Heading
2026-04-24 11:38 3.64026 98.87958 40 ft 0 kts 315°
2026-04-24 12:00 3.64019 98.87965 39 ft 3 kts 316°
2026-04-24 12:01 3.64004 98.87978 39 ft 3 kts 321°
2026-04-24 12:01 3.63988 98.87990 40 ft 3 kts 330°
2026-04-24 12:01 3.63971 98.87999 40 ft 2 kts 343°
2026-04-24 12:01 3.63968 98.88000 40 ft 0 kts 344°
2026-04-24 12:02 3.63964 98.88002 40 ft 0 kts 16°
2026-04-24 12:02 3.63960 98.88001 40 ft 0 kts 30°
2026-04-24 12:05 3.63965 98.88004 38 ft 4 kts 30°
2026-04-24 12:05 3.64006 98.88040 38 ft 12 kts 48°
2026-04-24 12:06 3.64078 98.88116 38 ft 17 kts 44°
2026-04-24 12:06 3.64141 98.88132 38 ft 12 kts 318°
2026-04-24 12:06 3.64223 98.88055 37 ft 19 kts 315°
2026-04-24 12:06 3.64293 98.87974 37 ft 13 kts 283°
2026-04-24 12:07 3.64256 98.87909 40 ft 10 kts 228°
2026-04-24 12:07 3.64202 98.87852 37 ft 15 kts 225°
2026-04-24 12:07 3.64111 98.87761 39 ft 21 kts 229°
2026-04-24 12:07 3.63990 98.87646 39 ft 26 kts 223°
2026-04-24 12:08 3.63862 98.87516 39 ft 26 kts 226°
2026-04-24 12:08 3.63739 98.87392 40 ft 21 kts 225°
2026-04-24 12:08 3.63638 98.87294 40 ft 20 kts 224°
2026-04-24 12:08 3.63624 98.87202 39 ft 12 kts 289°
2026-04-24 12:09 3.63597 98.87129 38 ft 13 kts 232°
2026-04-24 12:09 3.63536 98.87066 39 ft 14 kts 225°
2026-04-24 12:09 3.63454 98.86983 39 ft 20 kts 225°
2026-04-24 12:09 3.63344 98.86875 39 ft 24 kts 224°
2026-04-24 12:10 3.63230 98.86763 37 ft 23 kts 225°
2026-04-24 12:10 3.63118 98.86649 37 ft 23 kts 225°
2026-04-24 12:10 3.63010 98.86541 39 ft 22 kts 224°
2026-04-24 12:11 3.62807 98.86332 39 ft 21 kts 226°
2026-04-24 12:11 3.62698 98.86230 39 ft 22 kts 227°
2026-04-24 12:11 3.62592 98.86116 39 ft 23 kts 226°
2026-04-24 12:11 3.62499 98.86024 39 ft 11 kts 233°
2026-04-24 12:12 3.62489 98.85996 39 ft 0 kts 261°
2026-04-24 12:12 3.62489 98.85994 39 ft 2 kts 261°
2026-04-24 12:12 3.62492 98.85986 39 ft 0 kts 290°
2026-04-24 12:12 3.62499 98.85972 38 ft 5 kts 295°
2026-04-24 12:13 3.62536 98.85925 36 ft 12 kts 315°
2026-04-24 12:13 3.62589 98.85878 36 ft 6 kts 333°
2026-04-24 12:13 3.62610 98.85890 36 ft 0 kts 41°
2026-04-24 12:14 3.62617 98.85896 36 ft 13 kts 41°
2026-04-24 12:14 3.62870 98.86146 38 ft 85 kts 45°
2026-04-24 12:14 3.63429 98.86698 36 ft 139 kts 44°
2026-04-24 12:14 3.64224 98.87487 84 ft 177 kts 45°
2026-04-24 12:15 3.65095 98.88374 628 ft 179 kts 45°
2026-04-24 12:15 3.65760 98.89399 1216 ft 178 kts 76°
2026-04-24 12:15 3.65791 98.90637 1631 ft 185 kts 99°
2026-04-24 12:15 3.65420 98.91916 1860 ft 205 kts 110°
2026-04-24 12:16 3.64865 98.93311 2052 ft 226 kts 111°
2026-04-24 12:16 3.64253 98.94856 2333 ft 254 kts 111°
2026-04-24 12:16 3.63624 98.96548 2862 ft 264 kts 109°
2026-04-24 12:16 3.63006 98.98302 3587 ft 270 kts 108°
2026-04-24 12:17 3.62279 99.00024 4305 ft 271 kts 124°
2026-04-24 12:17 3.60971 99.01379 4957 ft 273 kts 141°
2026-04-24 12:17 3.59456 99.02572 5708 ft 278 kts 142°
2026-04-24 12:17 3.57922 99.03764 6488 ft 280 kts 142°
2026-04-24 12:18 3.56372 99.04963 7230 ft 283 kts 142°
2026-04-24 12:18 3.54806 99.06179 7941 ft 286 kts 141°
2026-04-24 12:18 3.53242 99.07400 8621 ft 289 kts 141°
2026-04-24 12:18 3.51648 99.08649 9284 ft 293 kts 141°
2026-04-24 12:19 3.50038 99.09915 9946 ft 297 kts 141°
2026-04-24 12:19 3.48382 99.11218 10328 ft 313 kts 141°
2026-04-24 12:19 3.46609 99.12612 10461 ft 334 kts 141°
2026-04-24 12:19 3.44746 99.14070 10590 ft 356 kts 141°
2026-04-24 12:20 3.42735 99.15642 10736 ft 374 kts 141°
2026-04-24 12:20 3.40663 99.17262 11160 ft 381 kts 141°
2026-04-24 12:20 3.38568 99.18905 11700 ft 385 kts 141°
2026-04-24 12:20 3.36448 99.20565 12305 ft 388 kts 141°
2026-04-24 12:21 3.34330 99.22226 12904 ft 390 kts 141°
2026-04-24 12:21 3.32175 99.23915 13453 ft 392 kts 141°
2026-04-24 12:21 3.30023 99.25607 13994 ft 395 kts 141°
2026-04-24 12:21 3.28590 99.26737 14339 ft 397 kts 141°
2026-04-24 12:22 3.25677 99.29028 15032 ft 400 kts 141°
2026-04-24 12:22 3.24218 99.30172 15353 ft 401 kts 141°
2026-04-24 12:22 3.22015 99.31894 15820 ft 403 kts 141°
2026-04-24 12:22 3.19800 99.33623 16274 ft 405 kts 141°
2026-04-24 12:23 3.17562 99.35369 16747 ft 408 kts 141°
2026-04-24 12:23 3.15324 99.37117 17186 ft 410 kts 141°
2026-04-24 12:23 3.13070 99.38883 17600 ft 412 kts 141°
2026-04-24 12:23 3.10814 99.40656 18011 ft 414 kts 141°
2026-04-24 12:24 3.08541 99.42442 18419 ft 416 kts 141°
2026-04-24 12:24 3.06258 99.44233 18792 ft 418 kts 141°
2026-04-24 12:24 3.03960 99.46033 19135 ft 421 kts 141°
2026-04-24 12:24 3.01640 99.47838 19464 ft 423 kts 141°
2026-04-24 12:25 2.99310 99.49653 19761 ft 426 kts 141°
2026-04-24 12:25 2.96971 99.51485 20080 ft 429 kts 141°
2026-04-24 12:25 2.94619 99.53333 20399 ft 431 kts 141°
2026-04-24 12:25 2.92253 99.55191 20706 ft 434 kts 141°
2026-04-24 12:26 2.89873 99.57062 20999 ft 436 kts 141°
2026-04-24 12:26 2.87477 99.58949 21307 ft 439 kts 141°
2026-04-24 12:26 2.85070 99.60839 21573 ft 441 kts 141°
2026-04-24 12:26 2.82647 99.62735 21846 ft 443 kts 141°
2026-04-24 12:27 2.80211 99.64639 22130 ft 446 kts 142°
2026-04-24 12:27 2.77756 99.66558 22385 ft 448 kts 141°
2026-04-24 12:27 2.75293 99.68479 22647 ft 450 kts 141°
2026-04-24 12:27 2.72818 99.70408 22896 ft 452 kts 141°
2026-04-24 12:28 2.70362 99.72331 23136 ft 454 kts 141°
2026-04-24 12:28 2.67840 99.74309 23393 ft 456 kts 141°
2026-04-24 12:28 2.65344 99.76264 23638 ft 457 kts 141°
2026-04-24 12:28 2.62831 99.78231 23859 ft 459 kts 141°
2026-04-24 12:29 2.60313 99.80203 24074 ft 461 kts 141°
2026-04-24 12:29 2.57875 99.82295 24278 ft 462 kts 134°
2026-04-24 12:29 2.55738 99.84704 24492 ft 464 kts 130°
2026-04-24 12:29 2.53648 99.87172 24698 ft 465 kts 130°
2026-04-24 12:30 2.51552 99.89643 24903 ft 466 kts 130°
2026-04-24 12:30 2.49449 99.92115 25099 ft 468 kts 130°
2026-04-24 12:30 2.47335 99.94595 25297 ft 470 kts 130°
2026-04-24 12:30 2.45211 99.97089 25513 ft 471 kts 130°
2026-04-24 12:31 2.43088 99.99586 25716 ft 472 kts 130°
2026-04-24 12:31 2.40956 100.02096 25919 ft 473 kts 130°
2026-04-24 12:31 2.38828 100.04615 26158 ft 475 kts 130°
2026-04-24 12:31 2.36688 100.07145 26390 ft 476 kts 130°
2026-04-24 12:32 2.34544 100.09670 26602 ft 477 kts 130°
2026-04-24 12:32 2.32422 100.12161 26878 ft 476 kts 130°
2026-04-24 12:32 2.30245 100.14711 27143 ft 475 kts 130°
2026-04-24 12:32 2.28127 100.17189 27415 ft 474 kts 131°
2026-04-24 12:33 2.25900 100.19668 27695 ft 473 kts 133°
2026-04-24 12:33 2.23647 100.22002 27979 ft 472 kts 135°
2026-04-24 12:33 2.21284 100.24331 28268 ft 471 kts 136°
2026-04-24 12:33 2.18970 100.26567 28540 ft 470 kts 136°
2026-04-24 12:34 2.16611 100.28860 28821 ft 471 kts 136°
2026-04-24 12:34 2.14285 100.31150 29120 ft 469 kts 135°
2026-04-24 12:34 2.11977 100.33455 29395 ft 468 kts 135°
2026-04-24 12:34 2.09693 100.35760 29693 ft 467 kts 135°
2026-04-24 12:35 2.07414 100.38075 29975 ft 466 kts 135°
2026-04-24 12:35 2.05139 100.40382 30237 ft 465 kts 135°
2026-04-24 12:35 2.02864 100.42680 30492 ft 464 kts 135°
2026-04-24 12:35 2.00597 100.44968 30750 ft 464 kts 135°
2026-04-24 12:36 1.98339 100.47245 31013 ft 463 kts 134°
2026-04-24 12:36 1.96051 100.49546 31281 ft 462 kts 135°
2026-04-24 12:36 1.93789 100.51817 31562 ft 459 kts 134°
2026-04-24 12:36 1.91537 100.54079 31792 ft 460 kts 135°
2026-04-24 12:37 1.89279 100.56350 32040 ft 460 kts 135°
2026-04-24 12:37 1.87031 100.58620 32300 ft 459 kts 134°
2026-04-24 12:37 1.84791 100.60883 32555 ft 457 kts 135°
2026-04-24 12:37 1.83279 100.62407 32701 ft 457 kts 135°
2026-04-24 12:38 1.80307 100.65397 33028 ft 458 kts 135°
2026-04-24 12:38 1.78068 100.67644 33300 ft 456 kts 135°
2026-04-24 12:38 1.75825 100.69899 33563 ft 456 kts 135°
2026-04-24 12:39 1.69128 100.76651 34368 ft 454 kts 134°
2026-04-24 12:39 1.66904 100.78895 34610 ft 454 kts 134°
2026-04-24 12:39 1.64681 100.81131 34760 ft 454 kts 134°
2026-04-24 12:40 1.62433 100.83391 34791 ft 457 kts 134°
2026-04-24 12:40 1.57975 100.87862 34802 ft 459 kts 135°
2026-04-24 12:41 1.53466 100.92401 34800 ft 458 kts 134°
2026-04-24 12:41 1.48979 100.96924 34798 ft 458 kts 134°
2026-04-24 12:42 1.44483 101.01442 34796 ft 457 kts 134°
2026-04-24 12:42 1.40001 101.05938 34789 ft 458 kts 135°
2026-04-24 12:43 1.35487 101.10477 34780 ft 458 kts 134°
2026-04-24 12:43 1.30999 101.15005 34779 ft 457 kts 134°
2026-04-24 12:44 1.26502 101.19533 34775 ft 458 kts 134°
2026-04-24 12:44 1.22019 101.24025 34786 ft 459 kts 134°
2026-04-24 12:45 1.17521 101.28548 34791 ft 458 kts 134°
2026-04-24 12:45 1.13032 101.33073 34791 ft 458 kts 134°
2026-04-24 12:46 1.08562 101.37581 34780 ft 457 kts 134°
2026-04-24 12:46 1.04065 101.42092 34781 ft 458 kts 134°
2026-04-24 12:47 0.99581 101.46594 34785 ft 458 kts 134°
2026-04-24 12:47 0.95090 101.51118 34782 ft 457 kts 134°
2026-04-24 12:48 0.90607 101.55625 34777 ft 457 kts 134°
2026-04-24 12:48 0.86120 101.60132 34773 ft 457 kts 134°
2026-04-24 12:49 0.81648 101.64631 34768 ft 456 kts 134°
2026-04-24 12:49 0.77179 101.69127 34769 ft 456 kts 134°
2026-04-24 12:50 0.72739 101.73591 34771 ft 455 kts 134°
2026-04-24 12:50 0.68275 101.78077 34775 ft 455 kts 134°
2026-04-24 12:51 0.63806 101.82578 34784 ft 456 kts 134°
2026-04-24 12:51 0.59331 101.87079 34787 ft 456 kts 134°
2026-04-24 12:52 0.54854 101.91573 34786 ft 456 kts 134°
2026-04-24 12:52 0.50389 101.96056 34785 ft 455 kts 134°
2026-04-24 12:53 0.45930 102.00533 34786 ft 454 kts 134°
2026-04-24 12:53 0.41468 102.05007 34775 ft 453 kts 134°
2026-04-24 12:54 0.37027 102.09479 34776 ft 452 kts 134°
2026-04-24 12:54 0.32600 102.13946 34769 ft 452 kts 134°
2026-04-24 12:55 0.28185 102.18380 34761 ft 451 kts 134°
2026-04-24 12:55 0.23758 102.22828 34760 ft 451 kts 134°
2026-04-24 12:56 0.19327 102.27280 34759 ft 452 kts 134°
2026-04-24 12:56 0.14895 102.31741 34764 ft 452 kts 134°
2026-04-24 12:57 0.10451 102.36203 34772 ft 453 kts 134°
2026-04-24 12:57 0.06004 102.40668 34769 ft 453 kts 134°
2026-04-24 12:58 0.01550 102.45122 34770 ft 452 kts 134°
2026-04-24 12:58 -0.02889 102.49587 34778 ft 453 kts 134°
2026-04-24 12:59 -0.07333 102.54063 34789 ft 453 kts 134°
2026-04-24 12:59 -0.11777 102.58549 34789 ft 454 kts 134°
2026-04-24 13:00 -0.16205 102.63002 34800 ft 456 kts 134°
2026-04-24 13:00 -0.20679 102.67481 34808 ft 455 kts 134°
2026-04-24 13:01 -0.25148 102.71972 34813 ft 455 kts 134°
2026-04-24 13:01 -0.29606 102.76458 34803 ft 455 kts 134°
2026-04-24 13:02 -0.34067 102.80944 34810 ft 455 kts 134°
2026-04-24 13:02 -0.37802 102.84702 34802 ft 455 kts 134°
2026-04-24 13:03 -0.42241 102.89153 34809 ft 455 kts 134°
2026-04-24 13:03 -0.46705 102.93638 34798 ft 455 kts 134°
2026-04-24 13:04 -0.51172 102.98133 34800 ft 456 kts 134°
2026-04-24 13:04 -0.55636 103.02627 34797 ft 456 kts 134°
2026-04-24 13:05 -0.60112 103.07127 34806 ft 456 kts 134°
2026-04-24 13:05 -0.64590 103.11611 34799 ft 456 kts 134°
2026-04-24 13:06 -0.69064 103.16112 34796 ft 456 kts 134°
2026-04-24 13:06 -0.73519 103.20611 34805 ft 455 kts 134°
2026-04-24 13:07 -0.77978 103.25108 34801 ft 455 kts 134°
2026-04-24 13:07 -0.82450 103.29592 34802 ft 455 kts 134°
2026-04-24 13:08 -0.86918 103.34072 34806 ft 455 kts 134°
2026-04-24 13:08 -0.91557 103.38331 34817 ft 457 kts 140°
2026-04-24 13:09 -0.98996 103.44336 34802 ft 458 kts 140°
2026-04-24 13:09 -1.03945 103.48334 34801 ft 459 kts 141°
2026-04-24 13:10 -1.08908 103.52354 34813 ft 459 kts 140°
2026-04-24 13:10 -1.13857 103.56369 34814 ft 459 kts 140°
2026-04-24 13:11 -1.18787 103.60368 34801 ft 458 kts 140°
2026-04-24 13:11 -1.23752 103.64384 34809 ft 460 kts 140°
2026-04-24 13:12 -1.28714 103.68398 34801 ft 459 kts 140°
2026-04-24 13:12 -1.33671 103.72415 34805 ft 459 kts 140°
2026-04-24 13:13 -1.38630 103.76434 34801 ft 459 kts 140°
2026-04-24 13:13 -1.43589 103.80453 34812 ft 458 kts 140°
2026-04-24 13:14 -1.48543 103.84465 34792 ft 459 kts 140°
2026-04-24 13:14 -1.53511 103.88485 34806 ft 458 kts 140°
2026-04-24 13:15 -1.58471 103.92502 34809 ft 459 kts 140°
2026-04-24 13:15 -1.63406 103.96495 34827 ft 459 kts 140°
2026-04-24 13:16 -1.68378 104.00520 34825 ft 460 kts 140°
2026-04-24 13:16 -1.73348 104.04547 34831 ft 460 kts 140°
2026-04-24 13:17 -1.78335 104.08590 34834 ft 462 kts 140°
2026-04-24 13:17 -1.83333 104.12641 34839 ft 462 kts 140°
2026-04-24 13:18 -1.88313 104.16683 34840 ft 461 kts 140°
2026-04-24 13:18 -1.93302 104.20723 34841 ft 461 kts 140°
2026-04-24 13:19 -1.98280 104.24755 34842 ft 460 kts 140°
2026-04-24 13:19 -2.03222 104.28766 34835 ft 460 kts 140°
2026-04-24 13:20 -2.08197 104.32797 34837 ft 460 kts 140°
2026-04-24 13:20 -2.13177 104.36824 34833 ft 460 kts 140°
2026-04-24 13:21 -2.18147 104.40855 34827 ft 459 kts 140°
2026-04-24 13:21 -2.23120 104.44884 34830 ft 460 kts 140°
2026-04-24 13:22 -2.28098 104.48915 34834 ft 460 kts 140°
2026-04-24 13:22 -2.33082 104.52951 34837 ft 461 kts 140°
2026-04-24 13:23 -2.38070 104.56999 34847 ft 461 kts 140°
2026-04-24 13:23 -2.43049 104.61046 34837 ft 461 kts 140°
2026-04-24 13:24 -2.48038 104.65085 34839 ft 460 kts 140°
2026-04-24 13:24 -2.53020 104.69118 34840 ft 460 kts 140°
2026-04-24 13:25 -2.57997 104.73158 34832 ft 461 kts 140°
2026-04-24 13:25 -2.62967 104.77202 34814 ft 460 kts 140°
2026-04-24 13:26 -2.67902 104.81206 34806 ft 460 kts 140°
2026-04-24 13:26 -2.72895 104.85255 34839 ft 463 kts 140°
2026-04-24 13:27 -2.77892 104.89319 34852 ft 462 kts 140°
2026-04-24 13:27 -2.82884 104.93358 34845 ft 461 kts 141°
2026-04-24 13:28 -2.87877 104.97397 34847 ft 461 kts 140°
2026-04-24 13:28 -2.92858 105.01437 34846 ft 461 kts 140°
2026-04-24 13:29 -2.97838 105.05484 34844 ft 461 kts 140°
2026-04-24 13:29 -3.02812 105.09528 34849 ft 461 kts 140°
2026-04-24 13:30 -3.07787 105.13573 34858 ft 460 kts 140°
2026-04-24 13:30 -3.12758 105.17611 34850 ft 460 kts 141°
2026-04-24 13:31 -3.17694 105.21614 34839 ft 459 kts 140°
2026-04-24 13:31 -3.22652 105.25647 34838 ft 460 kts 140°
2026-04-24 13:32 -3.27624 105.29699 34842 ft 461 kts 140°
2026-04-24 13:32 -3.32548 105.33804 34846 ft 461 kts 140°
2026-04-24 13:33 -3.37461 105.37936 34845 ft 461 kts 140°
2026-04-24 13:33 -3.42383 105.42055 34837 ft 461 kts 140°
2026-04-24 13:34 -3.47315 105.46171 34827 ft 461 kts 140°
2026-04-24 13:34 -3.52243 105.50278 34836 ft 461 kts 140°
2026-04-24 13:35 -3.57169 105.54395 34843 ft 463 kts 140°
2026-04-24 13:35 -3.62116 105.58529 34848 ft 462 kts 140°
2026-04-24 13:36 -3.67023 105.62628 34849 ft 462 kts 140°
2026-04-24 13:36 -3.71946 105.66739 34842 ft 460 kts 140°
2026-04-24 13:37 -3.76862 105.70845 34836 ft 460 kts 140°
2026-04-24 13:37 -3.81780 105.74954 34831 ft 460 kts 140°
2026-04-24 13:38 -3.86714 105.79067 34816 ft 461 kts 140°
2026-04-24 13:38 -3.91644 105.83182 34827 ft 461 kts 140°
2026-04-24 13:39 -3.96569 105.87306 34832 ft 461 kts 140°
2026-04-24 13:39 -4.01490 105.91430 34849 ft 461 kts 140°
2026-04-24 13:40 -4.06397 105.95546 34855 ft 461 kts 140°
2026-04-24 13:40 -4.11330 105.99668 34861 ft 460 kts 140°
2026-04-24 13:41 -4.16256 106.03768 34878 ft 461 kts 140°
2026-04-24 13:41 -4.21149 106.07869 34864 ft 461 kts 140°
2026-04-24 13:42 -4.26069 106.11994 34806 ft 462 kts 140°
2026-04-24 13:42 -4.28529 106.14052 34557 ft 461 kts 140°
2026-04-24 13:42 -4.30994 106.16115 34312 ft 461 kts 140°
2026-04-24 13:43 -4.33455 106.18178 34057 ft 461 kts 140°
2026-04-24 13:43 -4.35919 106.20240 33808 ft 462 kts 140°
2026-04-24 13:43 -4.38388 106.22303 33558 ft 462 kts 140°
2026-04-24 13:43 -4.40860 106.24365 33310 ft 462 kts 140°
2026-04-24 13:44 -4.43338 106.26433 33066 ft 462 kts 140°
2026-04-24 13:44 -4.45811 106.28502 32818 ft 463 kts 140°
2026-04-24 13:44 -4.48283 106.30573 32569 ft 464 kts 140°
2026-04-24 13:44 -4.50755 106.32646 32319 ft 464 kts 140°
2026-04-24 13:45 -4.53234 106.34729 32067 ft 464 kts 141°
2026-04-24 13:45 -4.55677 106.36781 31808 ft 464 kts 140°
2026-04-24 13:45 -4.58157 106.38865 31560 ft 465 kts 140°
2026-04-24 13:45 -4.60637 106.40942 31298 ft 465 kts 140°
2026-04-24 13:46 -4.63125 106.43023 31068 ft 466 kts 140°
2026-04-24 13:46 -4.65616 106.45106 30811 ft 467 kts 140°
2026-04-24 13:46 -4.68110 106.47197 30559 ft 468 kts 140°
2026-04-24 13:46 -4.70607 106.49294 30311 ft 468 kts 140°
2026-04-24 13:47 -4.73106 106.51389 30062 ft 468 kts 140°
2026-04-24 13:47 -4.75610 106.53484 29809 ft 469 kts 140°
2026-04-24 13:47 -4.78119 106.55584 29553 ft 470 kts 140°
2026-04-24 13:47 -4.80633 106.57690 29308 ft 471 kts 140°
2026-04-24 13:48 -4.82299 106.59090 29140 ft 472 kts 140°
2026-04-24 13:48 -4.84837 106.61188 28888 ft 474 kts 143°
2026-04-24 13:48 -4.90597 106.64381 28560 ft 476 kts 155°
2026-04-24 13:49 -4.93988 106.65928 28288 ft 477 kts 155°
2026-04-24 13:49 -4.96104 106.66888 28090 ft 477 kts 155°
2026-04-24 13:49 -4.99131 106.68262 27840 ft 479 kts 155°
2026-04-24 13:49 -5.02174 106.69648 27596 ft 480 kts 155°
2026-04-24 13:50 -5.05219 106.71040 27339 ft 481 kts 155°
2026-04-24 13:50 -5.08268 106.72434 27091 ft 482 kts 155°
2026-04-24 13:50 -5.11263 106.73805 26837 ft 472 kts 155°
2026-04-24 13:50 -5.14194 106.75152 26581 ft 456 kts 155°
2026-04-24 13:51 -5.17035 106.76450 26330 ft 442 kts 155°
2026-04-24 13:51 -5.19799 106.77706 26076 ft 430 kts 155°
2026-04-24 13:51 -5.22509 106.78934 25834 ft 425 kts 155°
2026-04-24 13:51 -5.25199 106.80153 25561 ft 423 kts 155°
2026-04-24 13:52 -5.27876 106.81361 24969 ft 422 kts 155°
2026-04-24 13:52 -5.30554 106.82570 24334 ft 420 kts 155°
2026-04-24 13:52 -5.33209 106.83770 23716 ft 418 kts 155°
2026-04-24 13:52 -5.35855 106.84969 23091 ft 416 kts 155°
2026-04-24 13:53 -5.38482 106.86160 22580 ft 412 kts 155°
2026-04-24 13:53 -5.41089 106.87341 21991 ft 409 kts 154°
2026-04-24 13:53 -5.43659 106.88472 21327 ft 409 kts 159°
2026-04-24 13:53 -5.46401 106.89116 21105 ft 400 kts 173°
2026-04-24 13:54 -5.49137 106.89111 20945 ft 388 kts 186°
2026-04-24 13:54 -5.51742 106.88496 20536 ft 384 kts 199°
2026-04-24 13:54 -5.54236 106.87546 20063 ft 383 kts 200°
2026-04-24 13:54 -5.56712 106.86588 19594 ft 381 kts 200°
2026-04-24 13:55 -5.59159 106.85635 18890 ft 374 kts 201°
2026-04-24 13:55 -5.61576 106.84693 18135 ft 371 kts 200°
2026-04-24 13:55 -5.63965 106.83767 17611 ft 366 kts 200°
2026-04-24 13:55 -5.66344 106.82848 17119 ft 367 kts 200°
2026-04-24 13:56 -5.68622 106.81733 16797 ft 362 kts 214°
2026-04-24 13:56 -5.70446 106.80021 16541 ft 359 kts 233°
2026-04-24 13:56 -5.71898 106.77984 16292 ft 358 kts 235°
2026-04-24 13:56 -5.73326 106.75942 16043 ft 356 kts 235°
2026-04-24 13:57 -5.74743 106.73906 15786 ft 356 kts 235°
2026-04-24 13:57 -5.76155 106.71872 15535 ft 354 kts 235°
2026-04-24 13:57 -5.77543 106.69867 15282 ft 352 kts 236°
2026-04-24 13:57 -5.78939 106.67846 15026 ft 351 kts 236°
2026-04-24 13:58 -5.80333 106.65833 14767 ft 349 kts 235°
2026-04-24 13:58 -5.81721 106.63841 14501 ft 347 kts 235°
2026-04-24 13:58 -5.83109 106.61851 14018 ft 349 kts 234°
2026-04-24 13:58 -5.84488 106.59881 13643 ft 340 kts 235°
2026-04-24 13:59 -5.85837 106.57950 12962 ft 336 kts 235°
2026-04-24 13:59 -5.87173 106.56030 12276 ft 333 kts 235°
2026-04-24 13:59 -5.88490 106.54131 11602 ft 329 kts 235°
2026-04-24 13:59 -5.89787 106.52258 10914 ft 326 kts 235°
2026-04-24 14:00 -5.91093 106.50381 10489 ft 326 kts 234°
2026-04-24 14:00 -5.92389 106.48522 10112 ft 323 kts 234°
2026-04-24 14:00 -5.93671 106.46688 9868 ft 316 kts 234°
2026-04-24 14:00 -5.94910 106.44910 9715 ft 307 kts 234°
2026-04-24 14:01 -5.96108 106.43183 9411 ft 303 kts 234°
2026-04-24 14:01 -5.97309 106.41451 9053 ft 301 kts 235°
2026-04-24 14:01 -5.98508 106.39725 8689 ft 300 kts 234°
2026-04-24 14:01 -5.99704 106.38009 8332 ft 298 kts 234°
2026-04-24 14:02 -6.00870 106.36331 8159 ft 286 kts 234°
2026-04-24 14:02 -6.01961 106.34761 8021 ft 266 kts 234°
2026-04-24 14:02 -6.03032 106.33279 7660 ft 256 kts 225°
2026-04-24 14:02 -6.04424 106.32216 7194 ft 250 kts 203°
2026-04-24 14:03 -6.06072 106.31774 6684 ft 244 kts 180°
2026-04-24 14:03 -6.07739 106.31941 6155 ft 241 kts 168°
2026-04-24 14:03 -6.09379 106.32239 5639 ft 238 kts 168°
2026-04-24 14:03 -6.11018 106.32529 5159 ft 239 kts 167°
2026-04-24 14:04 -6.12624 106.32816 4857 ft 236 kts 167°
2026-04-24 14:04 -6.14195 106.33091 4536 ft 235 kts 168°
2026-04-24 14:04 -6.15834 106.33374 4196 ft 235 kts 168°
2026-04-24 14:04 -6.17444 106.33655 3894 ft 234 kts 167°
2026-04-24 14:05 -6.19036 106.33943 3587 ft 231 kts 164°
2026-04-24 14:05 -6.20478 106.34595 3252 ft 225 kts 140°
2026-04-24 14:05 -6.21488 106.35760 3031 ft 219 kts 120°
2026-04-24 14:05 -6.22293 106.37072 3013 ft 221 kts 120°
2026-04-24 14:06 -6.23102 106.38399 3010 ft 221 kts 115°
2026-04-24 14:06 -6.23539 106.39871 3013 ft 221 kts 94°
2026-04-24 14:06 -6.23389 106.41395 3009 ft 221 kts 72°
2026-04-24 14:06 -6.22833 106.42832 3006 ft 220 kts 69°
2026-04-24 14:07 -6.22273 106.44235 3006 ft 210 kts 68°
2026-04-24 14:07 -6.21741 106.45570 3007 ft 203 kts 69°
2026-04-24 14:07 -6.21223 106.46873 3013 ft 199 kts 69°
2026-04-24 14:07 -6.20713 106.48154 3006 ft 197 kts 69°
2026-04-24 14:08 -6.20203 106.49431 3005 ft 196 kts 69°
2026-04-24 14:08 -6.19693 106.50707 2842 ft 197 kts 69°
2026-04-24 14:08 -6.19192 106.51963 2634 ft 187 kts 68°
2026-04-24 14:08 -6.18725 106.53133 2385 ft 175 kts 69°
2026-04-24 14:09 -6.18289 106.54235 2156 ft 165 kts 69°
2026-04-24 14:09 -6.17875 106.55278 1935 ft 157 kts 70°
2026-04-24 14:09 -6.17477 106.56274 1747 ft 151 kts 68°
2026-04-24 14:09 -6.17097 106.57228 1558 ft 144 kts 66°
2026-04-24 14:10 -6.16729 106.58155 1367 ft 142 kts 66°
2026-04-24 14:10 -6.16362 106.59075 1172 ft 142 kts 68°
2026-04-24 14:10 -6.15998 106.59994 985 ft 141 kts 69°
2026-04-24 14:10 -6.15643 106.60893 777 ft 140 kts 68°
2026-04-24 14:11 -6.15276 106.61815 563 ft 140 kts 68°
2026-04-24 14:11 -6.14914 106.62727 372 ft 141 kts 68°
2026-04-24 14:11 -6.14182 106.64542 58 ft 139 kts 69°
2026-04-24 14:12 -6.13847 106.65354 39 ft 106 kts 69°
2026-04-24 14:12 -6.13659 106.65839 39 ft 61 kts 68°
2026-04-24 14:12 -6.13523 106.66154 37 ft 30 kts 54°
2026-04-24 14:12 -6.13367 106.66291 39 ft 29 kts 38°
2026-04-24 14:13 -6.13285 106.66302 39 ft 8 kts 38°
2026-04-24 14:13 -6.13264 106.66347 39 ft 6 kts 65°
2026-04-24 14:13 -6.13249 106.66382 39 ft 5 kts 66°
2026-04-24 14:13 -6.13237 106.66408 37 ft 4 kts 66°
2026-04-24 14:14 -6.13229 106.66427 39 ft 2 kts 66°
2026-04-24 14:14 -6.13223 106.66440 39 ft 2 kts 66°
2026-04-24 14:14 -6.13206 106.66479 39 ft 9 kts 66°
2026-04-24 14:15 -6.13170 106.66564 39 ft 17 kts 67°
2026-04-24 14:15 -6.13120 106.66683 39 ft 19 kts 68°
2026-04-24 14:15 -6.13071 106.66814 38 ft 21 kts 70°
2026-04-24 14:15 -6.13020 106.66956 38 ft 22 kts 70°
2026-04-24 14:16 -6.12965 106.67093 39 ft 18 kts 67°
2026-04-24 14:16 -6.12916 106.67216 38 ft 20 kts 68°
2026-04-24 14:16 -6.12865 106.67343 38 ft 22 kts 68°
2026-04-24 14:17 -6.12715 106.67631 38 ft 25 kts 61°
2026-04-24 14:17 -6.12619 106.67777 38 ft 26 kts 44°
2026-04-24 14:17 -6.12274 106.67831 38 ft 28 kts 340°
2026-04-24 14:18 -6.12091 106.67758 38 ft 29 kts 339°
2026-04-24 14:18 -6.11900 106.67684 38 ft 30 kts 339°
2026-04-24 14:18 -6.11701 106.67602 38 ft 31 kts 336°
2026-04-24 14:18 -6.11502 106.67520 38 ft 32 kts 338°
2026-04-24 14:19 -6.11362 106.67465 38 ft 32 kts 339°
2026-04-24 14:19 -6.11097 106.67344 38 ft 30 kts 311°
2026-04-24 14:19 -6.11103 106.67163 38 ft 26 kts 257°
2026-04-24 14:19 -6.11146 106.66981 38 ft 27 kts 252°
2026-04-24 14:20 -6.11218 106.66808 38 ft 27 kts 246°
2026-04-24 14:20 -6.11292 106.66635 38 ft 27 kts 250°
2026-04-24 14:20 -6.11357 106.66459 38 ft 27 kts 249°
2026-04-24 14:20 -6.11428 106.66285 38 ft 27 kts 247°
2026-04-24 14:21 -6.11498 106.66110 38 ft 27 kts 248°
2026-04-24 14:21 -6.11571 106.65936 38 ft 27 kts 246°
2026-04-24 14:21 -6.11643 106.65760 38 ft 27 kts 247°
2026-04-24 14:21 -6.11719 106.65586 38 ft 27 kts 245°
2026-04-24 14:22 -6.11770 106.65421 38 ft 22 kts 250°
2026-04-24 14:22 -6.11827 106.65291 38 ft 17 kts 224°
2026-04-24 14:22 -6.11956 106.65399 38 ft 13 kts 84°
2026-04-24 14:23 -6.11929 106.65484 36 ft 13 kts 71°
2026-04-24 14:23 -6.11898 106.65564 38 ft 12 kts 85°
2026-04-24 14:23 -6.11916 106.65618 38 ft 6 kts 146°
2026-04-24 14:23 -6.11946 106.65613 38 ft 3 kts 220°
2026-04-24 14:24 -6.11958 106.65603 38 ft 0 kts 220°
2026-04-24 14:25 -6.11965 106.65597 38 ft 1 kts 219°
2026-04-24 14:25 -6.11971 106.65592 38 ft 1 kts 218°
2026-04-24 14:25 -6.11975 106.65589 38 ft 0 kts 218°
2026-04-24 14:26 -6.11977 106.65588 38 ft 0 kts 216°
2026-04-24 14:26 -6.11978 106.65587 38 ft 0 kts 216°
2026-04-24 14:26 -6.11982 106.65584 38 ft 3 kts 216°
2026-04-24 14:27 -6.11984 106.65583 38 ft 0 kts 216°